Location: Newark
(49.9828°N, 3.1606°E)
Time: 11:21:37
(UTC+00:00)

Envisat - Pass Details

Date: 31 January 2020
Orbit: 764 x 766 km, 98.1° (Epoch: 25 February)

Event Time Altitude Azimuth Distance (km) Brightness Sun altitude
Rises 05:47:12 0° 21° (NNE) 3,245 6.4 -15.5°
Reaches altitude 10° 05:49:45 10° 31° (NNE) 2,313 5.8 -15.1°
Maximum altitude 05:54:19 33° 95° (E) 1,283 4.9 -14.3°
Drops below altitude 10° 05:58:51 10° 158° (SSE) 2,297 5.9 -13.6°
Sets 06:01:22 0° 168° (SSE) 3,218 6.6 -13.2°
